Simultaneous Nadir Overpasses (SNOs) Predictions

Prediction of SNOs between GOES-15 and TERRA Satellite Orbit:

Table of predicted SNOs for the next 14.0 days since TLE Epoch: 4/27/2017
Index Date Time (GOES-15) GOES-15 Lat,Lon TERRA Lat,Lon Distance(km) Time Diff (sec)
1 04/29/2017 07:30:54 0.08,-135.44 0.24,-134.83 69.65 80
2 05/01/2017 07:18:43 0.09,-135.42 0.86,-131.88 403.02 80
3 05/01/2017 19:39:59 -0.09,-135.44 0.22,-137.04 180.86 80
4 05/03/2017 19:25:08 -0.10,-135.41 -0.41,-134.08 152.17 80
5 05/04/2017 07:46:32 0.10,-135.37 -0.70,-139.27 442.60 80
6 05/05/2017 19:12:56 -0.10,-135.39 -0.98,-131.12 485.02 80
7 05/06/2017 07:34:20 0.10,-135.35 -0.13,-136.31 109.70 80
8 05/08/2017 07:24:49 0.10,-135.31 0.52,-133.35 222.97 80
9 05/08/2017 19:46:05 -0.10,-135.34 0.56,-138.51 360.51 80
10 05/10/2017 19:33:53 -0.10,-135.30 -0.02,-135.55 28.75 80




NCC Satellite Simultaneous Nadir Overpasses (SNOs) Prediction Service
